Flag for Brazil Weather past 2 weeks in São Paulo, São Paulo, Brazil

Now
68 °F

Clear.


Feels Like: 68 °F
Forecast: 63 / 70 °F
Wind: 6 mph from Northwest

Location: Sao Paulo Airport

Current Time: Jun 30, 2015 at 11:38:55 PM

Latest Report: Jun 30, 2015 at 11:00 PM


Visibility: 10 mi

Pressure: 30.15 "Hg

Humidity: 64%

Dew point: 55 °F

Location of São PauloLocation

Historic Weather in São Paulo — Graph

°F

São Paulo temperature yesterday

Maximum temperature yesterday: 73 °F (at 2:00 PM)
Minimum temperature yesterday: 54 °F (at 4:00 AM)
Average temperature yesterday: 63 °F

Past Weeks' High & Low Weather Summary

 TemperatureHumidityPressure
High81 °F (Jun 18, 1:00 PM)94% (Jun 16, 3:00 AM)30.54 "Hg (Jun 16, 3:00 AM)
Low54 °F (Jun 16, 12:00 AM)34% (Jun 22, 1:00 PM)30.04 "Hg (Jun 18, 4:00 AM)
Average62 °F75%30.30 "Hg
* Reported Jun 15 10:00 PM — Jun 30 10:00 PM, São Paulo, Weather by CustomWeather, © 2015

Note: Actual official high and low records may vary slightly from our data, if they occured in-between our weather recording intervals... More about our weather records

Advertising

São Paulo weather history for previous 24 hours

 ConditionsComfort  
Time TempWeatherWind HumidityBarometerVisibility
10:00 PM
Tue, Jun 30
68 °FClear.8 mph64%30.15 "Hg10 mi
9:00 PM70 °FClear.9 mph60%30.12 "Hg10 mi
8:00 PM70 °FClear.10 mph60%30.09 "Hg10 mi
7:00 PM70 °FClear.10 mph60%30.12 "Hg10 mi
6:00 PM72 °FClear.14 mph53%30.09 "Hg10 mi
5:00 PM73 °FClear.15 mph50%30.09 "Hg10 mi
4:00 PM73 °FSunny.20 mph44%30.09 "Hg10 mi
3:00 PM75 °FSunny.21 mph41%30.09 "Hg10 mi
2:00 PM77 °FSunny.17 mph39%30.09 "Hg10 mi
1:00 PM75 °FSunny.17 mph41%30.12 "Hg10 mi
12:00 PM75 °FSunny.14 mph47%30.18 "Hg10 mi
11:00 AM72 °FSunny.15 mph53%30.21 "Hg10 mi
10:00 AM66 °FSunny.7 mph64%30.21 "Hg10 mi
9:00 AM63 °FSunny.6 mph73%30.21 "Hg10 mi
8:00 AM61 °FSunny.3 mph72%30.21 "Hg10 mi
7:00 AM59 °FSunny.5 mph77%30.18 "Hg10 mi
6:00 AM59 °FSunny.3 mph77%30.15 "Hg10 mi
5:00 AM59 °FPassing clouds.5 mph77%30.15 "HgN/A
4:00 AM61 °FClear.5 mph72%30.15 "Hg10 mi
3:00 AM61 °FClear.5 mph72%30.15 "Hg10 mi
2:00 AM61 °FPassing clouds.3 mph72%30.18 "HgN/A
1:00 AM63 °FClear.5 mph68%30.18 "Hg10 mi
12:00 AM63 °FPassing clouds.5 mph64%30.18 "HgN/A
11:00 PM
Mon, Jun 29
64 °FClear.5 mph56%30.18 "Hg10 mi
Weather by CustomWeather, © 2015

See weather overviewHow to use our weather pages